Wind_Speed
19 18 18 18 18 18 18 19 18 18 18 17 17 16 16 16 16 16 16 16 16 16 16 16 15 15 15 14 14 13 13 13 13 13 13 12 12 11
20 20 20 20 20 19 19 19 19 19 19 18 18 18 18 18 17 17 17 17 17 17 17 17 16 16 16 15 15 14 14 14 14 14 14 13 13 12
21 21 21 21 21 21 20 20 20 20 20 19 19 18 18 18 18 17 17 17 17 17 17 17 17 16 16 16 16 14 14 14 15 15 15 15 15 14
22 22 22 22 22 21 21 20 20 20 20 20 20 19 18 18 18 18 17 18 18 18 17 17 17 16 16 17 16 16 15 16 16 16 17 17 17 16
23 23 23 23 22 22 22 22 21 21 20 20 20 20 19 19 19 19 18 18 17 17 17 17 17 18 17 17 17 17 17 17 17 18 18 18 17 17
23 23 23 23 23 23 23 22 22 22 22 21 21 20 20 20 19 19 19 19 18 17 18 18 18 18 17 17 18 18 18 18 19 19 19 19 18 18
24 24 24 24 24 23 23 23 23 23 23 22 21 21 20 20 20 20 19 19 18 18 18 19 19 19 19 20 20 20 20 20 20 20 21 20 19 19
24 24 24 24 24 24 23 23 23 23 23 23 23 22 21 21 20 20 19 19 18 18 18 18 19 20 21 22 22 22 22 21 21 21 21 21 20 20
25 25 24 25 24 24 24 23 23 23 23 23 24 24 23 22 22 21 20 19 19 19 19 20 20 20 21 22 23 24 23 22 22 22 22 22 22 22
25 26 26 26 25 25 24 24 24 23 23 23 24 24 24 24 23 23 22 22 21 21 21 21 21 21 22 22 23 23 23 23 22 23 23 23 23 23
26 26 26 26 26 26 25 25 25 25 25 24 24 25 25 24 24 25 24 23 23 23 23 23 22 22 22 23 23 23 23 23 23 24 24 24 24 24
28 27 27 27 26 26 26 26 26 25 25 25 25 25 25 25 25 25 25 25 25 25 25 25 24 24 24 23 23 24 24 24 24 25 25 25 26 26
28 28 28 28 27 27 27 27 27 27 26 26 25 25 25 26 26 26 26 26 27 27 27 27 27 26 25 25 25 25 25 25 26 26 27 27 27 27
29 29 28 28 28 28 28 28 29 28 28 27 27 26 26 26 27 28 27 27 28 28 29 29 28 28 27 27 26 26 26 26 27 27 28 28 29 29
29 29 29 29 29 29 29 29 30 29 29 29 28 28 27 27 27 28 29 29 29 29 30 30 29 29 29 29 28 27 27 28 28 28 28 29 29 30
30 30 30 29 29 29 29 29 29 29 29 28 29 29 29 29 28 28 29 29 30 30 30 31 30 30 30 30 30 30 28 28 28 28 29 29 29 29
30 29 29 29 29 29 29 29 29 28 28 28 29 29 29 29 29 29 29 29 29 29 30 30 31 30 30 31 31 32 32 30 30 30 30 30 30 29
30 30 30 30 30 30 30 29 28 28 29 29 29 30 30 29 29 28 29 29 30 30 30 30 31 31 31 31 32 32 32 32 31 31 31 31 31 31
30 30 30 30 30 31 30 30 30 30 29 29 29 30 30 29 28 28 29 29 29 30 30 31 31 32 32 31 31 32 32 33 32 32 32 32 32 32
30 30 30 30 30 30 31 31 31 30 30 29 29 29 28 28 29 29 29 29 30 30 31 31 31 32 32 33 33 33 34 34 34 34 33 33 33 33
30 30 31 31 32 31 31 32 32 31 30 29 29 28 28 29 29 29 29 29 29 30 31 31 32 33 33 34 34 34 33 34 34 34 34 34 34 33
31 31 32 32 32 32 31 31 31 30 29 28 28 28 28 28 29 29 29 29 30 31 31 32 33 34 34 34 34 34 34 33 33 33 33 34 34 34
31 31 31 31 31 30 30 29 29 29 28 28 28 28 28 29 29 29 30 30 31 31 32 32 33 33 33 34 34 34 34 34 34 34 34 34 34 34
Wind_Direction
297 296 296 295 295 294 293 292 291 291 290 288 290 288 287 284 283 282 282 277 277 278 276 276 276 272 272 273 276 276 275 275 275 276 279 283 285 283
292 293 294 294 292 293 293 290 289 290 290 289 288 288 287 286 280 280 281 280 279 276 273 274 274 270 270 272 271 272 275 275 272 272 274 277 280 281
287 289 289 291 291 291 293 290 288 288 288 289 289 289 286 283 281 279 279 278 276 275 274 274 274 271 271 269 270 272 274 276 274 270 271 275 279 279
285 285 287 288 288 288 289 289 287 286 286 288 289 289 287 284 283 282 280 279 275 272 272 273 272 271 269 269 270 271 272 274 274 273 271 273 277 278
284 283 284 286 286 287 287 287 286 285 284 285 286 286 287 285 282 281 280 278 275 272 271 271 270 270 268 268 270 270 270 271 271 272 272 273 275 276
284 284 284 285 285 287 286 286 286 284 283 284 285 285 284 284 284 282 280 278 274 273 272 268 266 268 267 267 269 269 270 271 271 271 272 273 276 276
286 286 286 286 287 287 287 286 284 283 281 281 283 283 281 281 281 282 281 277 272 271 271 269 267 268 269 268 269 269 271 271 271 271 271 273 274 274
285 285 285 285 286 288 287 286 285 284 283 280 280 280 280 280 281 282 280 277 272 272 275 273 268 266 268 269 269 269 270 270 269 270 270 271 272 272
285 285 284 284 283 285 286 287 286 285 284 281 279 279 279 280 280 279 278 277 273 271 274 274 272 270 269 269 270 270 270 270 271 271 270 269 271 272
284 284 284 284 284 285 284 285 286 286 285 284 281 278 277 277 276 276 274 275 273 271 271 271 272 272 272 272 272 271 271 269 270 271 271 270 270 271
285 284 284 285 283 283 283 282 283 284 283 283 281 279 276 275 274 273 273 273 272 272 271 271 272 273 272 273 274 274 273 271 270 270 270 270 270 271
284 284 284 284 284 283 282 282 282 282 282 280 279 277 274 272 272 272 272 272 272 272 272 272 273 273 272 273 272 273 272 271 271 271 271 272 273 273
283 283 283 282 283 283 283 283 283 283 283 281 280 278 275 272 271 271 270 271 272 272 272 272 272 274 273 272 272 272 273 271 271 270 271 272 273 273
284 283 282 281 281 281 282 282 283 283 281 280 279 278 277 274 271 270 270 270 271 272 272 272 272 273 272 272 271 272 273 273 273 271 270 271 272 272
286 283 283 281 281 280 280 280 280 280 280 278 277 276 275 276 274 272 270 270 271 273 273 273 272 272 272 273 272 272 272 272 273 272 271 272 272 271
286 283 282 280 280 280 280 280 280 279 278 278 276 275 274 274 274 273 270 270 270 270 271 272 272 271 271 272 272 273 273 273 274 274 273 273 274 275
287 284 282 281 281 281 280 280 279 278 278 276 275 275 274 274 274 273 271 270 270 270 270 272 272 272 272 271 272 273 274 274 274 274 274 274 275 276
287 283 281 281 280 279 279 279 278 278 278 277 276 276 275 274 274 273 273 272 271 271 271 272 273 273 273 272 273 274 274 274 274 273 273 274 274 274
287 284 282 281 280 279 277 277 278 279 279 277 277 277 275 273 273 274 274 274 274 272 272 272 273 273 273 273 274 273 274 274 274 274 274 274 274 273
288 285 283 281 280 279 278 277 277 278 278 277 277 276 274 274 275 276 278 277 276 274 273 272 273 273 274 274 274 275 275 275 274 275 275 274 274 273
287 285 282 281 280 279 278 277 277 276 276 276 276 276 275 276 277 278 280 280 278 276 274 273 273 274 274 275 276 277 277 275 275 275 275 274 273 273
287 285 284 283 282 281 281 278 276 275 275 275 276 275 275 277 278 279 280 281 280 279 278 275 274 274 274 276 277 277 276 276 276 275 275 274 274 273
287 286 285 284 281 280 280 278 276 274 275 275 275 275 275 276 278 279 280 280 281 280 281 279 276 275 275 275 276 276 276 276 276 275 275 275 275 273
Height
5843 5843 5841 5840 5839 5838 5837 5836 5836 5836 5835 5834 5834 5833 5833 5833 5833 5833 5832 5832 5833 5833 5833 5834 5834 5834 5835 5835 5835 5835 5835 5835 5835 5835 5835 5835 5835 5834
5839 5838 5837 5836 5835 5834 5833 5832 5831 5831 5830 5830 5830 5829 5828 5828 5828 5828 5828 5828 5828 5828 5829 5830 5830 5830 5831 5831 5831 5832 5832 5832 5832 5832 5832 5832 5832 5831
5834 5833 5832 5831 5830 5829 5828 5827 5826 5826 5825 5825 5824 5824 5823 5823 5823 5823 5823 5823 5823 5824 5824 5825 5825 5826 5826 5827 5827 5828 5828 5828 5828 5828 5828 5828 5828 5828
5828 5828 5827 5826 5825 5824 5823 5822 5821 5821 5820 5820 5819 5819 5818 5818 5818 5818 5819 5819 5819 5819 5820 5820 5821 5821 5822 5822 5823 5823 5823 5824 5824 5824 5824 5824 5824 5824
5822 5821 5821 5820 5819 5819 5817 5816 5816 5815 5815 5815 5814 5814 5814 5813 5813 5813 5814 5814 5814 5814 5815 5816 5816 5817 5817 5818 5818 5818 5819 5819 5819 5819 5819 5819 5819 5819
5816 5815 5814 5814 5813 5813 5812 5811 5810 5810 5809 5809 5809 5809 5808 5808 5808 5808 5809 5809 5809 5809 5810 5810 5811 5812 5812 5812 5813 5813 5814 5814 5814 5814 5814 5814 5814 5814
5809 5809 5808 5807 5807 5806 5806 5805 5804 5804 5803 5803 5803 5803 5803 5803 5802 5803 5803 5803 5803 5804 5804 5805 5806 5806 5807 5807 5807 5808 5808 5808 5808 5809 5809 5809 5809 5809
5803 5802 5801 5800 5800 5800 5799 5799 5798 5798 5797 5797 5797 5797 5797 5797 5797 5797 5797 5797 5798 5799 5799 5800 5800 5800 5801 5801 5801 5802 5802 5802 5802 5803 5803 5803 5803 5803
5797 5796 5795 5794 5793 5793 5793 5792 5792 5791 5791 5791 5791 5791 5791 5791 5791 5791 5792 5792 5792 5793 5793 5794 5794 5794 5794 5795 5795 5795 5796 5796 5796 5796 5796 5797 5797 5797
5790 5789 5788 5788 5787 5787 5786 5786 5785 5785 5784 5784 5784 5784 5784 5784 5785 5785 5785 5786 5786 5786 5787 5787 5787 5788 5788 5788 5788 5788 5788 5789 5789 5789 5789 5790 5790 5790
5783 5782 5781 5781 5780 5779 5779 5779 5778 5778 5777 5777 5777 5777 5777 5777 5778 5778 5778 5779 5779 5780 5780 5780 5780 5781 5781 5781 5781 5781 5781 5781 5782 5782 5782 5782 5782 5782
5775 5775 5774 5773 5773 5772 5772 5771 5771 5771 5770 5770 5769 5769 5769 5770 5770 5771 5771 5771 5772 5773 5773 5773 5773 5773 5774 5774 5774 5774 5774 5774 5774 5774 5774 5774 5774 5774
5768 5767 5766 5766 5765 5765 5764 5764 5763 5763 5763 5762 5762 5762 5762 5762 5763 5763 5764 5764 5764 5765 5765 5765 5765 5766 5766 5766 5766 5766 5766 5765 5765 5765 5765 5766 5766 5766
5759 5759 5758 5758 5757 5757 5756 5756 5755 5755 5755 5754 5755 5755 5754 5754 5755 5755 5755 5755 5756 5756 5756 5756 5757 5757 5757 5757 5757 5757 5757 5757 5757 5757 5756 5756 5756 5756
5751 5750 5750 5749 5748 5748 5748 5747 5747 5746 5746 5746 5746 5746 5746 5746 5746 5746 5746 5746 5747 5747 5747 5747 5748 5748 5748 5748 5748 5748 5748 5748 5748 5748 5747 5747 5747 5747
5742 5741 5740 5740 5739 5739 5738 5738 5737 5737 5737 5737 5737 5737 5737 5737 5737 5737 5737 5737 5738 5739 5738 5738 5738 5739 5739 5739 5739 5738 5739 5739 5739 5739 5738 5738 5737 5737
5733 5732 5731 5731 5730 5730 5729 5729 5728 5728 5728 5728 5728 5728 5728 5728 5728 5728 5728 5728 5728 5729 5729 5729 5729 5729 5729 5729 5729 5729 5729 5729 5729 5728 5728 5728 5728 5727
5724 5723 5722 5721 5721 5721 5720 5720 5719 5719 5719 5719 5718 5718 5719 5719 5719 5718 5718 5718 5718 5719 5719 5720 5719 5719 5720 5720 5719 5719 5719 5719 5718 5718 5717 5718 5718 5717
5715 5714 5713 5712 5712 5711 5711 5711 5710 5710 5709 5709 5709 5709 5709 5709 5709 5709 5709 5709 5709 5709 5709 5709 5709 5709 5710 5710 5709 5709 5708 5708 5707 5707 5707 5706 5706 5706
5706 5704 5703 5703 5702 5701 5701 5701 5701 5700 5700 5700 5700 5700 5700 5700 5700 5700 5700 5700 5699 5699 5699 5699 5699 5699 5699 5699 5699 5698 5697 5697 5697 5696 5696 5695 5695 5694
5696 5695 5694 5693 5692 5692 5691 5691 5691 5691 5691 5691 5691 5691 5691 5691 5690 5690 5690 5690 5689 5689 5689 5689 5688 5688 5687 5688 5688 5688 5687 5686 5685 5685 5684 5684 5683 5683
5687 5686 5684 5683 5682 5681 5681 5681 5681 5681 5681 5681 5681 5681 5681 5681 5681 5681 5681 5680 5679 5679 5678 5678 5677 5677 5676 5676 5676 5676 5675 5675 5674 5673 5672 5672 5671 5671
5677 5676 5675 5673 5672 5671 5671 5671 5671 5671 5671 5672 5672 5672 5671 5671 5671 5671 5671 5670 5669 5669 5668 5667 5666 5666 5665 5665 5664 5664 5664 5663 5662 5662 5661 5660 5659 5659